When you browse on this site, cookies collect data to enhance your experience and personalize the content and advertising you see.
Visit our Privacy Policy to learn more. By continuing to use the site, you agree to this use of cookies and data.
  • In Hungary
  • List of Countries
  • For 7 days
  • Water Temperature
  • Weather Map
  • News
  • Weather Widgets
  • user-avatar
    Login

    Hourly Weather Kielkowo

    Today, 8 April, Wednesday

    Time Temperature Precipitation Wind Pressure Humidity
    00:00 +8°C° 0 mm 3 mps 769 mmHg 64%
    01:00 +8°C° 0 mm 2 mps 769 mmHg 65%
    02:00 +7°C° 0 mm 2 mps 768 mmHg 67%
    03:00 +7°C° 0 mm 2 mps 768 mmHg 69%
    04:00 +6°C° 0 mm 2 mps 768 mmHg 71%
    05:00 +7°C° 0 mm 2 mps 768 mmHg 69%
    06:00 +8°C° 0 mm 2 mps 768 mmHg 68%
    07:00 +9°C° 0 mm 2 mps 768 mmHg 66%
    08:00 +12°C° 0 mm 2 mps 768 mmHg 62%
    09:00 +14°C° 0 mm 2 mps 767 mmHg 59%
    10:00 +16°C° 0 mm 2 mps 767 mmHg 55%
    11:00 +18°C° 0 mm 3 mps 766 mmHg 53%
    12:00 +19°C° 0 mm 3 mps 766 mmHg 50%
    13:00 +21°C° 0 mm 3 mps 765 mmHg 48%
    14:00 +21°C° 0 mm 3 mps 764 mmHg 46%
    15:00 +21°C° 0 mm 3 mps 764 mmHg 44%
    16:00 +21°C° 0 mm 3 mps 763 mmHg 42%
    17:00 +19°C° 0 mm 3 mps 763 mmHg 46%
    18:00 +17°C° 0 mm 2 mps 762 mmHg 51%
    19:00 +15°C° 0 mm 2 mps 762 mmHg 55%
    20:00 +14°C° 0 mm 2 mps 762 mmHg 54%
    21:00 +13°C° 0 mm 2 mps 762 mmHg 53%
    22:00 +12°C° 0 mm 2 mps 762 mmHg 51%
    23:00 +12°C° 0 mm 2 mps 762 mmHg 53%

    Tomorrow, 9 April, Thursday

    Time Temperature Precipitation Wind Pressure Humidity
    00:00 +10°C° 0 mm 2 mps 761 mmHg 54%
    01:00 +10°C° 0 mm 2 mps 761 mmHg 56%
    02:00 +9°C° 0 mm 2 mps 761 mmHg 58%
    03:00 +8°C° 0 mm 2 mps 761 mmHg 60%
    04:00 +8°C° 0 mm 2 mps 760 mmHg 62%
    05:00 +9°C° 0 mm 2 mps 760 mmHg 63%
    06:00 +9°C° 0 mm 3 mps 760 mmHg 64%
    07:00 +10°C° 0 mm 3 mps 760 mmHg 64%
    08:00 +12°C° 0 mm 3 mps 760 mmHg 61%
    09:00 +14°C° 0 mm 4 mps 760 mmHg 57%
    10:00 +17°C° 0 mm 4 mps 760 mmHg 53%
    11:00 +17°C° 0 mm 5 mps 760 mmHg 50%
    12:00 +17°C° 0 mm 5 mps 760 mmHg 47%
    13:00 +19°C° 0 mm 6 mps 760 mmHg 44%
    14:00 +17°C° 0 mm 6 mps 761 mmHg 45%
    15:00 +17°C° 0 mm 6 mps 761 mmHg 46%
    16:00 +16°C° 0 mm 6 mps 761 mmHg 48%
    17:00 +15°C° 0 mm 5 mps 761 mmHg 55%
    18:00 +13°C° 0 mm 4 mps 761 mmHg 62%
    19:00 +11°C° 0 mm 4 mps 762 mmHg 69%
    20:00 +10°C° 0 mm 3 mps 762 mmHg 66%
    21:00 +8°C° 0 mm 3 mps 763 mmHg 63%
    22:00 +7°C° 0 mm 3 mps 764 mmHg 59%
    23:00 +6°C° 0 mm 2 mps 764 mmHg 61%

    Day after tomorrow, 10 April, Friday

    Time Temperature Precipitation Wind Pressure Humidity
    00:00 +5°C° 0 mm 2 mps 764 mmHg 62%
    01:00 +5°C° 0 mm 2 mps 764 mmHg 63%
    02:00 +4°C° 0 mm 2 mps 764 mmHg 66%
    03:00 +4°C° 0 mm 2 mps 764 mmHg 68%
    04:00 +4°C° 0 mm 2 mps 764 mmHg 71%
    05:00 +4°C° 0 mm 2 mps 764 mmHg 69%
    06:00 +5°C° 0 mm 2 mps 765 mmHg 68%
    07:00 +6°C° 0 mm 2 mps 765 mmHg 66%
    08:00 +7°C° 0 mm 2 mps 765 mmHg 60%
    09:00 +9°C° 0 mm 2 mps 765 mmHg 53%
    10:00 +10°C° 0 mm 3 mps 765 mmHg 47%
    11:00 +11°C° 0 mm 3 mps 765 mmHg 43%
    12:00 +12°C° 0 mm 3 mps 765 mmHg 39%
    13:00 +13°C° 0 mm 3 mps 765 mmHg 35%
    14:00 +13°C° 0 mm 3 mps 764 mmHg 36%
    15:00 +13°C° 0 mm 3 mps 764 mmHg 36%
    16:00 +13°C° 0 mm 3 mps 763 mmHg 36%
    17:00 +13°C° 0 mm 2 mps 763 mmHg 42%
    18:00 +10°C° 0 mm 2 mps 763 mmHg 47%
    19:00 +9°C° 0 mm 2 mps 763 mmHg 53%
    20:00 +9°C° 0 mm 1 mps 764 mmHg 56%
    21:00 +8°C° 0 mm 1 mps 764 mmHg 58%
    22:00 +7°C° 0 mm 1 mps 764 mmHg 61%
    23:00 +6°C° 0 mm 1 mps 764 mmHg 63%

    11 April, Saturday

    Time Temperature Precipitation Wind Pressure Humidity
    00:00 +5°C° 0 mm 0 mps 764 mmHg 65%
    01:00 +4°C° 0 mm 0 mps 764 mmHg 67%
    02:00 +4°C° 0 mm 0 mps 764 mmHg 69%
    03:00 +5°C° 0 mm 1 mps 764 mmHg 71%
    04:00 +4°C° 0 mm 1 mps 764 mmHg 72%
    05:00 +5°C° 0 mm 1 mps 764 mmHg 71%
    06:00 +6°C° 0 mm 1 mps 764 mmHg 69%
    07:00 +7°C° 0 mm 1 mps 764 mmHg 67%
    08:00 +9°C° 0 mm 1 mps 764 mmHg 60%
    09:00 +10°C° 0 mm 1 mps 764 mmHg 53%
    10:00 +12°C° 0 mm 2 mps 764 mmHg 46%
    11:00 +13°C° 0 mm 2 mps 764 mmHg 41%
    12:00 +14°C° 0 mm 2 mps 764 mmHg 37%
    13:00 +15°C° 0 mm 2 mps 763 mmHg 32%
    14:00 +15°C° 0 mm 1 mps 763 mmHg 32%
    15:00 +16°C° 0 mm 1 mps 763 mmHg 32%
    16:00 +16°C° 0 mm 1 mps 762 mmHg 32%
    17:00 +14°C° 0 mm 1 mps 762 mmHg 36%
    18:00 +12°C° 0 mm 1 mps 762 mmHg 41%
    19:00 +11°C° 0 mm 1 mps 762 mmHg 46%
    20:00 +10°C° 0 mm 1 mps 762 mmHg 48%
    21:00 +10°C° 0 mm 1 mps 762 mmHg 50%
    22:00 +8°C° 0 mm 2 mps 762 mmHg 52%
    23:00 +8°C° 0 mm 2 mps 761 mmHg 55%

    12 April, Sunday

    Time Temperature Precipitation Wind Pressure Humidity
    00:00 +7°C° 0 mm 2 mps 761 mmHg 57%
    01:00 +7°C° 0 mm 2 mps 761 mmHg 60%
    02:00 +6°C° 0 mm 2 mps 760 mmHg 62%
    03:00 +6°C° 0 mm 2 mps 760 mmHg 64%
    04:00 +6°C° 0 mm 2 mps 759 mmHg 65%
    05:00 +7°C° 0 mm 2 mps 759 mmHg 65%
    06:00 +8°C° 0 mm 2 mps 759 mmHg 65%
    07:00 +8°C° 0 mm 2 mps 758 mmHg 65%
    08:00 +12°C° 0 mm 2 mps 758 mmHg 58%
    09:00 +13°C° 0 mm 3 mps 757 mmHg 52%
    10:00 +17°C° 0 mm 3 mps 757 mmHg 45%
    11:00 +18°C° 0 mm 4 mps 756 mmHg 42%
    12:00 +20°C° 0 mm 4 mps 756 mmHg 39%
    13:00 +21°C° 0 mm 4 mps 755 mmHg 36%
    14:00 +21°C° 0 mm 4 mps 755 mmHg 36%
    15:00 +21°C° 0 mm 4 mps 754 mmHg 37%
    16:00 +21°C° 0 mm 4 mps 754 mmHg 37%
    17:00 +19°C° 0 mm 3 mps 753 mmHg 44%
    18:00 +17°C° 0 mm 3 mps 753 mmHg 50%
    19:00 +15°C° 0 mm 2 mps 753 mmHg 57%
    20:00 +14°C° 0 mm 2 mps 753 mmHg 60%
    21:00 +13°C° 0 mm 2 mps 753 mmHg 64%
    22:00 +12°C° 0 mm 2 mps 753 mmHg 67%
    23:00 +12°C° 0 mm 2 mps 753 mmHg 70%

    13 April, Monday

    Time Temperature Precipitation Wind Pressure Humidity
    00:00 +10°C° 0 mm 2 mps 752 mmHg 73%
    01:00 +10°C° 0 mm 2 mps 752 mmHg 76%
    02:00 +10°C° 0 mm 3 mps 752 mmHg 76%
    03:00 +10°C° 0 mm 3 mps 752 mmHg 77%
    04:00 +10°C° 0 mm 3 mps 752 mmHg 77%
    05:00 +10°C° 0.2 mm 3 mps 752 mmHg 81%
    06:00 +10°C° 0.2 mm 4 mps 752 mmHg 84%
    07:00 +9°C° 0.2 mm 5 mps 752 mmHg 87%
    08:00 +9°C° 0.1 mm 5 mps 752 mmHg 81%
    09:00 +10°C° 0.1 mm 6 mps 753 mmHg 74%
    10:00 +10°C° 0.1 mm 7 mps 753 mmHg 67%
    11:00 +10°C° 0.1 mm 7 mps 754 mmHg 68%
    12:00 +10°C° 0.1 mm 6 mps 754 mmHg 69%
    13:00 +9°C° 0.1 mm 6 mps 755 mmHg 70%
    14:00 +9°C° 0 mm 7 mps 756 mmHg 62%
    15:00 +9°C° 0 mm 7 mps 756 mmHg 54%
    16:00 +7°C° 0 mm 8 mps 757 mmHg 46%
    17:00 +5°C° 0 mm 7 mps 758 mmHg 45%
    18:00 +3°C° 0 mm 6 mps 759 mmHg 45%
    19:00 +2°C° 0 mm 5 mps 760 mmHg 45%
    20:00 +1°C° 0 mm 4 mps 761 mmHg 46%
    21:00 +1°C° 0 mm 3 mps 761 mmHg 48%
    22:00 +1°C° 0 mm 2 mps 762 mmHg 50%
    23:00 +1°C° 0 mm 2 mps 763 mmHg 51%
    Show more